Weather History for Talkeetna, AK

Change the Weather History Date:

Sunday, September 30, 2012

  Actual Average Record
Temperature  
Mean Temperature 34 °F -  
Max Temperature 46 °F 49 °F 62 °F (1997)
Min Temperature 23 °F 32 °F 20 °F (1957)
Degree Days  
Heating Degree Days 30    
Moisture  
Dew Point 25 °F    
Average Humidity 74    
Maximum Humidity 96    
Minimum Humidity 44    
Precipitation  
Precipitation 0.00 in - - ()
Sea Level Pressure  
Sea Level Pressure 30.02 in    
Wind  
Wind Speed 1 mph (NW)    
Max Wind Speed 5 mph    
Max Gust Speed -    
Visibility 10 miles    
Events      
Averages and records for this station are not official NWS values.
T = Trace of Precipitation, MM = Missing Value Source: NWS Daily Summary

Daily Weather History Graph

Daily Weather History Graph

Search for Another Location

Airport:

Trip Planner

Search our weather history database for the weather conditions in past years. The results will help you decide how hot, cold, wet, or windy it might be!

Date:

Astronomy

Sep. 30, 2012 Rise Set
Actual Time 8:06 AM AKDT 7:31 PM AKDT
Civil Twilight 7:22 AM AKDT 8:16 PM AKDT
Nautical Twilight 6:29 AM AKDT 9:08 PM AKDT
Astronomical Twilight 5:33 AM AKDT 10:04 PM AKDT
Moon 7:05 PM AKDT (9/30) 9:17 AM AKDT (9/30)
Length of Visible Light 12h 54m
Length of Day
11h 24m
Full, 100% of the Moon is Illuminated
Sep 30
Full
Oct 7
Last Quarter
Oct 15
New
Oct 21
First Quarter
Oct 29
Full

Hourly Weather History & Observations

Time (AKDT) Temp. Windchill Dew Point Humidity Pressure Visibility Wind Dir Wind Speed Gust Speed Precip Events Conditions
12:53 AM 30.0 °F - 28.0 °F 92% 29.94 in 10.0 mi Calm Calm - N/A   Clear
1:53 AM 28.9 °F - 28.0 °F 96% 29.95 in 10.0 mi Calm Calm - N/A   Clear
2:53 AM 28.9 °F - 27.0 °F 92% 29.96 in 10.0 mi Calm Calm - N/A   Clear
3:53 AM 28.0 °F - 25.0 °F 88% 29.98 in 10.0 mi Calm Calm - N/A   Clear
4:53 AM 27.0 °F - 24.1 °F 89% 29.99 in 10.0 mi Calm Calm - N/A   Clear
5:53 AM 26.1 °F - 23.0 °F 88% 30.00 in 10.0 mi Calm Calm - N/A   Clear
6:53 AM 25.0 °F - 21.9 °F 88% 30.01 in 10.0 mi Calm Calm - N/A   Clear
7:53 AM 23.0 °F - 21.0 °F 92% 30.01 in 10.0 mi Calm Calm - N/A   Clear
8:53 AM 25.0 °F - 21.0 °F 85% 30.03 in 10.0 mi Calm Calm - N/A   Clear
9:53 AM 30.0 °F 26.5 °F 24.1 °F 79% 30.04 in 10.0 mi North 3.5 mph - N/A   Clear
10:53 AM 32.0 °F 28.7 °F 25.0 °F 75% 30.05 in 10.0 mi NNW 3.5 mph - N/A   Clear
11:53 AM 36.0 °F 32.1 °F 25.0 °F 64% 30.05 in 10.0 mi NNW 4.6 mph - N/A   Clear
12:53 PM 37.9 °F 34.4 °F 25.0 °F 60% 30.04 in 10.0 mi WNW 4.6 mph - N/A   Clear
1:53 PM 41.0 °F 39.0 °F 26.1 °F 55% 30.04 in 10.0 mi Variable 3.5 mph - N/A   Clear
2:53 PM 44.1 °F 42.5 °F 26.1 °F 49% 30.03 in 10.0 mi NW 3.5 mph - N/A   Clear
3:53 PM 45.0 °F - 24.1 °F 44% 30.02 in 10.0 mi Calm Calm - N/A   Clear
4:53 PM 45.0 °F - 24.1 °F 44% 30.02 in 10.0 mi Calm Calm - N/A   Clear
5:53 PM 45.0 °F 43.5 °F 24.1 °F 44% 30.02 in 10.0 mi West 3.5 mph - N/A   Clear
6:53 PM 44.1 °F 42.5 °F 24.1 °F 45% 30.02 in 10.0 mi West 3.5 mph - N/A   Clear
7:53 PM 37.9 °F - 28.0 °F 68% 30.02 in 10.0 mi Calm Calm - N/A   Clear
8:53 PM 32.0 °F - 26.1 °F 79% 30.04 in 10.0 mi Calm Calm - N/A   Clear
9:53 PM 30.0 °F - 25.0 °F 82% 30.05 in 10.0 mi Calm Calm - N/A   Clear
10:53 PM 28.9 °F - 25.0 °F 85% 30.06 in 10.0 mi Calm Calm - N/A   Clear
11:53 PM 28.0 °F - 25.0 °F 88% 30.08 in 10.0 mi Calm Calm - N/A   Clear